Schneifelwetter: Wetterstation Hallschlag, 537 m . NN
Wetterdaten: Samstag, 23.04.2011
Datum Zeit Temp. A. Feuchte A. Luftdruck Regen Wind Richtung Richtung Sonnenschein Helligkeit T Regen Taupunkt Windchill
23.04.2011 00:00 7,4 C 74 % 1010 hPa 0,0 l/m 0,0 km/h (0 Bft) O-NO 65 0 min 0 lux 0,00 min 3,1 C 7,4 C
23.04.2011 00:15 7,1 C 75 % 1010 hPa 0,0 l/m 0,0 km/h (0 Bft) O-NO 65 0 min 0 lux 0,00 min 3,0 C 7,1 C
23.04.2011 00:30 7,0 C 76 % 1009 hPa 0,0 l/m 0,0 km/h (0 Bft) O-NO 65 0 min 0 lux 0,00 min 3,1 C 7,0 C
23.04.2011 00:45 6,8 C 76 % 1010 hPa 0,0 l/m 0,0 km/h (0 Bft) O-NO 65 0 min 0 lux 0,00 min 2,9 C 6,8 C
23.04.2011 01:00 6,6 C 76 % 1010 hPa 0,0 l/m 0,0 km/h (0 Bft) O-NO 65 0 min 0 lux 0,00 min 2,7 C 6,6 C
23.04.2011 01:15 6,3 C 78 % 1010 hPa 0,0 l/m 0,0 km/h (0 Bft) O-NO 65 0 min 0 lux 0,00 min 2,8 C 6,3 C
23.04.2011 01:31 6,4 C 79 % 1010 hPa 0,0 l/m 0,0 km/h (0 Bft) O-NO 65 0 min 0 lux 0,00 min 3,0 C 6,4 C
23.04.2011 01:46 7,7 C 82 % 1010 hPa 0,0 l/m 16,7 km/h (3 Bft) NO45 55 0 min 0 lux 0,00 min 4,8 C 1,6 C
23.04.2011 02:01 8,3 C 76 % 1010 hPa 0,0 l/m 11,8 km/h (2 Bft) NO22.5 35 0 min 0 lux 0,00 min 4,3 C 4,7 C
23.04.2011 02:15 7,8 C 78 % 1010 hPa 0,0 l/m 0,4 km/h (0 Bft) N-NO 30 0 min 0 lux 0,00 min 4,2 C 7,8 C
23.04.2011 02:30 8,3 C 78 % 1010 hPa 0,0 l/m 0,0 km/h (0 Bft) N-NO 30 0 min 0 lux 0,00 min 4,7 C 8,3 C
23.04.2011 02:45 8,4 C 78 % 1010 hPa 0,0 l/m 16,5 km/h (3 Bft) O-SO 120 0 min 0 lux 0,00 min 4,8 C 2,5 C
23.04.2011 03:00 9,5 C 78 % 1010 hPa 0,0 l/m 12,3 km/h (3 Bft) W-NW45 295 0 min 0 lux 0,00 min 5,9 C 5,8 C
23.04.2011 03:15 10,1 C 76 % 1010 hPa 0,0 l/m 0,0 km/h (0 Bft) N 350 0 min 0 lux 0,00 min 6,1 C 10,1 C
23.04.2011 03:30 10,3 C 76 % 1010 hPa 0,0 l/m 18,3 km/h (3 Bft) W22.5 260 0 min 0 lux 0,00 min 6,3 C 4,2 C
23.04.2011 03:45 10,2 C 74 % 1010 hPa 0,0 l/m 10,4 km/h (2 Bft) NW22.5 315 0 min 0 lux 0,00 min 5,8 C 7,6 C
23.04.2011 04:00 9,6 C 74 % 1010 hPa 0,0 l/m 0,0 km/h (0 Bft) W 280 0 min 0 lux 0,00 min 5,2 C 9,6 C
23.04.2011 04:15 9,0 C 75 % 1010 hPa 0,0 l/m 0,0 km/h (0 Bft) W 275 0 min 0 lux 0,00 min 4,8 C 9,0 C
23.04.2011 04:30 8,4 C 76 % 1009 hPa 0,0 l/m 0,0 km/h (0 Bft) W 270 0 min 0 lux 0,00 min 4,4 C 8,4 C
23.04.2011 04:45 8,0 C 77 % 1009 hPa 0,0 l/m 0,0 km/h (0 Bft) W 275 0 min 0 lux 0,00 min 4,2 C 8,0 C
23.04.2011 05:00 7,8 C 79 % 1009 hPa 0,0 l/m 0,0 km/h (0 Bft) W 275 0 min 0 lux 0,00 min 4,4 C 7,8 C
23.04.2011 05:15 7,6 C 79 % 1009 hPa 0,0 l/m 0,6 km/h (0 Bft) N-NO22.5 20 0 min 0 lux 0,00 min 4,2 C 7,6 C
23.04.2011 05:30 8,5 C 80 % 1009 hPa 0,0 l/m 14,3 km/h (3 Bft) NO45 45 0 min 0 lux 0,00 min 5,3 C 3,6 C
23.04.2011 05:45 8,5 C 79 % 1010 hPa 0,0 l/m 5,9 km/h (2 Bft) N22.5 10 0 min 0 lux 0,00 min 5,1 C 8,5 C
23.04.2011 06:00 8,2 C 78 % 1010 hPa 0,0 l/m 0,0 km/h (0 Bft) N-NO 20 0 min 0 lux 0,00 min 4,6 C 8,2 C
23.04.2011 06:15 8,4 C 80 % 1010 hPa 0,0 l/m 6,3 km/h (2 Bft) N 360 0 min 130 lux 0,00 min 5,2 C 8,4 C
23.04.2011 06:30 8,8 C 80 % 1010 hPa 0,0 l/m 12,0 km/h (2 Bft) N-NO22.5 15 0 min 517 lux 0,00 min 5,5 C 5,1 C
23.04.2011 06:45 8,7 C 79 % 1010 hPa 0,0 l/m 1,0 km/h (0 Bft) N 360 0 min 1,16 klux 0,00 min 5,3 C 8,7 C
23.04.2011 07:00 8,5 C 79 % 1010 hPa 0,0 l/m 7,5 km/h (2 Bft) N-NO22.5 20 0 min 2,99 klux 0,00 min 5,1 C 7,6 C
23.04.2011 07:15 8,9 C 80 % 1010 hPa 0,0 l/m 15,6 km/h (3 Bft) N-NO22.5 15 0 min 7,58 klux 0,00 min 5,6 C 3,5 C
23.04.2011 07:30 10,0 C 78 % 1010 hPa 0,0 l/m 11,0 km/h (2 Bft) N-NO22.5 15 0 min 12,8 klux 0,00 min 6,3 C 7,0 C
23.04.2011 07:45 10,2 C 77 % 1010 hPa 0,0 l/m 0,0 km/h (0 Bft) N 10 0 min 15,6 klux 0,00 min 6,4 C 10,2 C
23.04.2011 08:00 11,1 C 76 % 1010 hPa 0,0 l/m 1,3 km/h (1 Bft) N-NO22.5 30 0 min 21,6 klux 0,00 min 7,0 C 11,1 C
23.04.2011 08:15 12,2 C 73 % 1010 hPa 0,0 l/m 15,7 km/h (3 Bft) NO 35 0 min 26,6 klux 0,00 min 7,5 C 7,5 C
23.04.2011 08:30 13,3 C 70 % 1010 hPa 0,0 l/m 12,3 km/h (3 Bft) N-NO 25 0 min 29,3 klux 0,00 min 7,9 C 10,2 C
23.04.2011 08:45 14,2 C 68 % 1010 hPa 0,0 l/m 23,4 km/h (4 Bft) O-NO22.5 65 0 min 32,2 klux 0,00 min 8,4 C 7,9 C
23.04.2011 09:00 15,1 C 66 % 1010 hPa 0,0 l/m 18,3 km/h (3 Bft) O-NO45 70 0 min 36,8 klux 0,00 min 8,8 C 10,3 C
23.04.2011 09:15 16,2 C 62 % 1010 hPa 0,0 l/m 17,8 km/h (3 Bft) O-NO45 70 0 min 39,8 klux 0,00 min 8,9 C 11,8 C
23.04.2011 09:30 16,9 C 59 % 1010 hPa 0,0 l/m 19,1 km/h (3 Bft) O-NO45 70 0 min 43,8 klux 0,00 min 8,8 C 12,4 C
23.04.2011 09:45 17,8 C 58 % 1010 hPa 0,0 l/m 15,9 km/h (3 Bft) O-NO22.5 75 0 min 46,4 klux 0,00 min 9,4 C 14,3 C
23.04.2011 10:01 18,8 C 55 % 1010 hPa 0,0 l/m 20,1 km/h (4 Bft) O45 80 0 min 51,2 klux 0,00 min 9,6 C 14,6 C
23.04.2011 10:15 19,6 C 51 % 1010 hPa 0,0 l/m 21,5 km/h (4 Bft) O67.5 85 14 min 53,2 klux 0,00 min 9,2 C 15,4 C
23.04.2011 10:30 20,2 C 52 % 1010 hPa 0,0 l/m 20,9 km/h (4 Bft) O67.5 95 15 min 57,1 klux 0,00 min 10,0 C 16,3 C
23.04.2011 10:45 20,7 C 48 % 1010 hPa 0,0 l/m 26,0 km/h (4 Bft) O-NO22.5 75 15 min 59,7 klux 0,00 min 9,3 C 16,2 C
23.04.2011 11:00 21,2 C 45 % 1010 hPa 0,0 l/m 25,6 km/h (4 Bft) O45 85 15 min 63,0 klux 0,00 min 8,8 C 16,9 C
23.04.2011 11:15 21,3 C 45 % 1010 hPa 0,0 l/m 27,1 km/h (4 Bft) O-NO45 70 15 min 60,7 klux 0,00 min 8,9 C 16,9 C
23.04.2011 11:30 21,3 C 43 % 1010 hPa 0,0 l/m 25,6 km/h (4 Bft) O-NO22.5 70 15 min 67,5 klux 0,00 min 8,2 C 17,1 C
23.04.2011 11:45 21,5 C 42 % 1010 hPa 0,0 l/m 24,6 km/h (4 Bft) O-NO67.5 75 15 min 70,2 klux 0,00 min 8,0 C 17,5 C
23.04.2011 12:00 21,8 C 41 % 1010 hPa 0,0 l/m 23,8 km/h (4 Bft) O-NO45 70 15 min 71,5 klux 0,00 min 8,0 C 18,0 C
23.04.2011 12:15 21,7 C 40 % 1010 hPa 0,0 l/m 27,0 km/h (4 Bft) O45 80 15 min 72,9 klux 0,00 min 7,5 C 17,4 C
23.04.2011 12:30 22,0 C 40 % 1010 hPa 0,0 l/m 28,6 km/h (4 Bft) O67.5 90 15 min 73,4 klux 0,00 min 7,8 C 17,7 C
23.04.2011 12:45 22,3 C 38 % 1010 hPa 0,0 l/m 27,5 km/h (4 Bft) O-NO45 65 15 min 74,1 klux 0,00 min 7,3 C 18,2 C
23.04.2011 13:00 22,7 C 36 % 1010 hPa 0,0 l/m 24,3 km/h (4 Bft) O67.5 100 15 min 75,4 klux 0,00 min 6,9 C 19,1 C
23.04.2011 13:16 22,5 C 34 % 1010 hPa 0,0 l/m 29,8 km/h (5 Bft) O67.5 85 16 min 75,5 klux 0,00 min 5,9 C 18,3 C
23.04.2011 13:30 22,4 C 34 % 1010 hPa 0,0 l/m 26,6 km/h (4 Bft) O22.5 90 14 min 75,7 klux 0,00 min 5,8 C 18,5 C
23.04.2011 13:45 22,4 C 33 % 1010 hPa 0,0 l/m 33,2 km/h (5 Bft) O67.5 95 15 min 76,3 klux 0,00 min 5,3 C 17,8 C
23.04.2011 14:00 22,4 C 35 % 1010 hPa 0,0 l/m 22,9 km/h (4 Bft) O45 80 15 min 74,6 klux 0,00 min 6,2 C 18,9 C
23.04.2011 14:15 22,6 C 34 % 1010 hPa 0,0 l/m 21,3 km/h (4 Bft) O-SO45 115 15 min 76,7 klux 0,00 min 5,9 C 19,4 C
23.04.2011 14:30 22,2 C 35 % 1010 hPa 0,0 l/m 18,6 km/h (3 Bft) SO45 130 15 min 75,6 klux 0,00 min 6,0 C 19,3 C
23.04.2011 14:45 22,3 C 34 % 1010 hPa 0,0 l/m 26,2 km/h (4 Bft) O-NO67.5 70 15 min 76,3 klux 0,00 min 5,7 C 18,4 C
23.04.2011 15:01 22,4 C 35 % 1010 hPa 0,0 l/m 25,1 km/h (4 Bft) O-NO45 70 16 min 74,5 klux 0,00 min 6,2 C 18,6 C
23.04.2011 15:15 22,8 C 35 % 1010 hPa 0,0 l/m 21,5 km/h (4 Bft) O45 85 14 min 73,2 klux 0,00 min 6,5 C 19,6 C
23.04.2011 15:30 22,9 C 34 % 1010 hPa 0,0 l/m 25,8 km/h (4 Bft) O-NO22.5 70 15 min 72,4 klux 0,00 min 6,2 C 19,2 C
23.04.2011 15:45 22,8 C 31 % 1010 hPa 0,0 l/m 31,0 km/h (5 Bft) NO22.5 35 15 min 69,6 klux 0,00 min 4,8 C 18,6 C
23.04.2011 16:00 22,9 C 33 % 1010 hPa 0,0 l/m 21,6 km/h (4 Bft) O-NO45 75 15 min 68,8 klux 0,00 min 5,8 C 19,7 C
23.04.2011 16:15 23,1 C 32 % 1010 hPa 0,0 l/m 15,3 km/h (3 Bft) O45 80 15 min 68,1 klux 0,00 min 5,5 C 21,0 C
23.04.2011 16:30 22,9 C 33 % 1010 hPa 0,0 l/m 18,1 km/h (3 Bft) O67.5 80 15 min 64,8 klux 0,00 min 5,8 C 20,2 C
23.04.2011 16:45 22,9 C 33 % 1010 hPa 0,0 l/m 19,0 km/h (3 Bft) O45 90 15 min 60,9 klux 0,00 min 5,8 C 20,1 C
23.04.2011 17:00 22,0 C 33 % 1010 hPa 0,0 l/m 18,3 km/h (3 Bft) O45 90 0 min 18,3 klux 0,00 min 5,0 C 19,1 C
23.04.2011 17:15 21,4 C 34 % 1010 hPa 0,0 l/m 11,6 km/h (2 Bft) NO22.5 50 0 min 28,4 klux 0,00 min 4,9 C 19,7 C
23.04.2011 17:30 20,7 C 35 % 1010 hPa 0,0 l/m 21,5 km/h (4 Bft) NO67.5 35 0 min 11,5 klux 0,00 min 4,7 C 16,9 C
23.04.2011 17:45 20,2 C 36 % 1010 hPa 0,0 l/m 16,0 km/h (3 Bft) N-NO22.5 20 0 min 14,2 klux 0,00 min 4,7 C 17,3 C
23.04.2011 18:00 19,8 C 37 % 1010 hPa 0,0 l/m 18,9 km/h (3 Bft) N-NO22.5 30 0 min 10,2 klux 0,00 min 4,7 C 16,2 C
23.04.2011 18:16 19,5 C 38 % 1010 hPa 0,0 l/m 14,5 km/h (3 Bft) N-NO22.5 25 0 min 11,0 klux 0,00 min 4,8 C 16,8 C
23.04.2011 18:30 19,5 C 38 % 1010 hPa 0,0 l/m 16,6 km/h (3 Bft) N-NO22.5 25 0 min 30,5 klux 0,00 min 4,8 C 16,3 C
23.04.2011 18:45 20,0 C 38 % 1010 hPa 0,0 l/m 15,1 km/h (3 Bft) N-NO67.5 25 0 min 29,5 klux 0,00 min 5,2 C 17,2 C
23.04.2011 19:00 20,1 C 37 % 1010 hPa 0,0 l/m 19,0 km/h (3 Bft) N-NO22.5 20 0 min 23,0 klux 0,00 min 5,0 C 16,5 C
23.04.2011 19:15 19,9 C 42 % 1010 hPa 0,0 l/m 20,6 km/h (4 Bft) N-NO45 20 0 min 20,6 klux 0,00 min 6,6 C 16,0 C
23.04.2011 19:30 19,2 C 44 % 1011 hPa 0,0 l/m 17,1 km/h (3 Bft) N-NO22.5 30 0 min 7,05 klux 0,00 min 6,7 C 15,8 C
23.04.2011 19:45 18,5 C 44 % 1011 hPa 0,0 l/m 12,5 km/h (3 Bft) N22.5 10 0 min 3,14 klux 0,00 min 6,0 C 16,1 C
23.04.2011 20:00 17,6 C 45 % 1011 hPa 0,0 l/m 10,0 km/h (2 Bft) N22.5 5 0 min 2,37 klux 0,00 min 5,5 C 16,0 C
23.04.2011 20:15 16,5 C 48 % 1011 hPa 0,0 l/m 5,1 km/h (1 Bft) N 5 0 min 1,75 klux 0,00 min 5,5 C 16,5 C
23.04.2011 20:30 15,2 C 51 % 1011 hPa 0,0 l/m 0,0 km/h (0 Bft) N 5 0 min 1,10 klux 0,00 min 5,1 C 15,2 C
23.04.2011 20:45 14,7 C 53 % 1011 hPa 0,0 l/m 4,0 km/h (1 Bft) N 355 0 min 493 lux 0,00 min 5,2 C 14,7 C
23.04.2011 21:00 13,9 C 55 % 1011 hPa 0,0 l/m 0,0 km/h (0 Bft) N-NW 340 0 min 188 lux 0,00 min 5,0 C 13,9 C
23.04.2011 21:15 12,8 C 58 % 1011 hPa 0,0 l/m 0,0 km/h (0 Bft) N-NW 340 0 min 26 lux 0,00 min 4,7 C 12,8 C
23.04.2011 21:31 12,1 C 60 % 1012 hPa 0,0 l/m 0,0 km/h (0 Bft) N-NW 340 0 min 1 lux 0,00 min 4,6 C 12,1 C
23.04.2011 21:45 11,3 C 61 % 1012 hPa 0,0 l/m 0,0 km/h (0 Bft) N-NW 340 0 min 0 lux 0,00 min 4,1 C 11,3 C
23.04.2011 22:00 10,8 C 64 % 1012 hPa 0,0 l/m 0,0 km/h (0 Bft) N-NW 340 0 min 0 lux 0,00 min 4,3 C 10,8 C
23.04.2011 22:15 10,6 C 65 % 1012 hPa 0,0 l/m 0,0 km/h (0 Bft) N-NW 340 0 min 0 lux 0,00 min 4,3 C 10,6 C
23.04.2011 22:30 10,4 C 66 % 1012 hPa 0,0 l/m 0,0 km/h (0 Bft) N-NW 340 0 min 0 lux 0,00 min 4,3 C 10,4 C
23.04.2011 22:45 10,0 C 68 % 1012 hPa 0,0 l/m 0,0 km/h (0 Bft) N-NW 340 0 min 0 lux 0,00 min 4,4 C 10,0 C
23.04.2011 23:00 9,8 C 68 % 1012 hPa 0,0 l/m 0,0 km/h (0 Bft) N-NW 340 0 min 0 lux 0,00 min 4,2 C 9,8 C
23.04.2011 23:15 9,5 C 69 % 1012 hPa 0,0 l/m 0,0 km/h (0 Bft) N-NW 340 0 min 0 lux 0,00 min 4,1 C 9,5 C
23.04.2011 23:30 9,2 C 69 % 1012 hPa 0,0 l/m 0,0 km/h (0 Bft) N-NW 340 0 min 0 lux 0,00 min 3,8 C 9,2 C
23.04.2011 23:45 8,9 C 70 % 1012 hPa 0,0 l/m 0,0 km/h (0 Bft) N-NW 340 0 min 0 lux 0,00 min 3,7 C 8,9 C
_ Min-Zeit 01:15 15:45 00:30 - 00:00 - - - - - 01:00 01:46
Minimum _ 6,3 C 31 % 1009 hPa - 0,0 km/h (0 Bft) - - - - - 2,7 C 1,6 C
_ Max-Zeit 16:15 01:46 21:31 00:00 13:45 - - 13:16 14:15 00:00 10:30 16:15
Maximum _ 23,1 C 82 % 1012 hPa 0,0 l/m 33,2 km/h
O (5 Bft)
- - 16 min 76,7 klux 0,00 min 10,0 C 21,0 C
Durchschnitt _ 14,9 C 57 % 1010 hPa #0,0 l/m 12,3 km/h (3 Bft) O - #6:44 h 25,7 klux #0 min. 5,7 C 12,6 C